Flag for USA

Past Weather in Yakima, Washington, USA — Yesterday and Last 2 Weeks

Now
58 °F

Sunny.


Feels Like: 58 °F
Forecast: 81 / 54 °F
Wind: 3 mph from South

Location: Yakima Air Terminal

Current Time: Jul 12, 2020 at 7:20:14 am

Latest Report: Jul 12, 2020 at 5:53 am


Visibility: 10 mi

Pressure: 30.06 "Hg

Humidity: 65%

Dew Point: 46 °F

Location of YakimaLocation

Past Weather in Yakima — Graph

°F

Yakima Temperature Yesterday

Maximum temperature yesterday: 91 °F (at 2:53 pm)
Minimum temperature yesterday: 53 °F (at 4:53 am)
Average temperature yesterday: 72 °F

High & Low Weather Summary for the Past Weeks

 TemperatureHumidityPressure
High91 °F (Jul 11, 2:53 pm)86% (Jul 10, 5:53 am)30.11 "Hg (Jul 10, 5:53 am)
Low45 °F (Jul 3, 5:53 am)14% (Jul 11, 1:53 pm)29.70 "Hg (Jun 28, 2:53 pm)
Average68 °F42%29.91 "Hg
* Reported Jun 27 5:53 am — Jul 12 5:53 am, Yakima. Weather by CustomWeather, © 2020

Note: Actual official high and low records may vary slightly from our data, if they occured in-between our weather recording intervals... More about our weather records

Yakima Weather History for the Previous 24 Hours

Scroll right to see more
 ConditionsComfort  
Time TempWeatherWind HumidityBarometerVisibility
5:53 am
Sun, Jul 12
58 °FSunny.3 mph65%30.06 "Hg10 mi
4:53 am60 °FClear.No wind60%30.05 "Hg10 mi
3:53 am58 °FClear.No wind65%30.04 "Hg10 mi
2:53 am61 °FClear.6 mph58%30.03 "Hg10 mi
1:53 am64 °FClear.6 mph52%30.02 "Hg10 mi
12:53 am64 °FClear.7 mph50%30.03 "Hg10 mi
11:53 pm
Sat, Jul 11
66 °FClear.N/A47%30.02 "Hg10 mi
10:53 pm68 °FClear.9 mph38%30.02 "Hg10 mi
9:53 pm70 °FClear.15 mph35%30.00 "Hg10 mi
8:53 pm73 °FPassing clouds.18 mph30%29.96 "Hg10 mi
7:53 pm76 °FScattered clouds.10 mph29%29.96 "Hg10 mi
6:53 pm77 °FSunny.16 mph24%29.95 "Hg10 mi
5:53 pm80 °FSunny.21 mph24%29.90 "Hg10 mi
4:53 pm86 °FSunny.20 mph21%29.89 "Hg10 mi
3:53 pm89 °FSunny.12 mph14%29.87 "Hg10 mi
2:53 pm91 °FSunny.17 mph14%29.88 "Hg10 mi
1:53 pm90 °FSunny.16 mph14%29.90 "Hg10 mi
12:53 pm86 °FSunny.6 mph19%29.92 "Hg10 mi
11:53 am85 °FSunny.8 mph20%29.95 "Hg10 mi
10:53 am79 °FSunny.3 mph31%29.97 "Hg10 mi
9:53 am74 °FSunny.3 mph38%29.99 "Hg10 mi
8:53 am71 °FSunny.7 mph41%30.01 "Hg10 mi
7:53 am65 °FSunny.7 mph47%30.02 "Hg10 mi
Weather by CustomWeather, © 2020

See weather overview